M0ZPG Weather Reports


time (UTC)temp
C
wind
direction
speed
KPH
gust
KPH
rain 1hr
cm
rain 24hr
cm
rain mn
cm
humidity
%
barometer
mb
20260906205405 19 174 0.0 1.6 0.00 0.00 0.00 68 1016.4
20260906204505 19 174 0.0 1.6 0.00 0.00 0.00 68 1016.6
20260906203606 20 174 0.0 3.2 0.00 0.00 0.00 67 1016.8
20260906202703 20 174 0.0 3.2 0.00 0.00 0.00 67 1016.8
20260906201805 20 174 1.6 4.8 0.00 0.00 0.00 67 1016.8
20260906200905 20 175 1.6 6.4 0.00 0.00 0.00 67 1016.9
20260906200005 20 180 1.6 3.2 0.00 0.00 0.00 67 1016.9
20260906195403 20 165 1.6 11.3 0.00 0.00 0.00 67 1016.8
20260906194504 20 190 1.6 4.8 0.00 0.00 0.00 67 1016.7
20260906193606 20 190 0.0 4.8 0.00 0.00 0.00 66 1016.8
20260906192703 21 323 0.0 1.6 0.00 0.00 0.00 63 1016.9
20260906191805 21 323 0.0 4.8 0.00 0.00 0.00 63 1017.0
20260906190905 21 295 1.6 6.4 0.00 0.00 0.00 63 1017.0
20260906190005 21 190 0.0 3.2 0.00 0.00 0.00 63 1017.3
20260906185408 21 190 0.0 3.2 0.00 0.00 0.00 62 1017.3
20260906184713 21 190 0.0 3.2 0.00 0.00 0.00 61 1017.3
20260906183815 21 161 1.6 4.8 0.00 0.00 0.00 61 1017.1
20260906182703 21 125 1.6 4.8 0.00 0.00 0.00 60 1017.1
20260906181804 21 126 1.6 8.0 0.00 0.00 0.00 60 1017.1
20260906181117 21 138 3.2 8.0 0.00 0.00 0.00 60 1017.1
20260906180003 22 164 1.6 8.0 0.00 0.00 0.00 60 1017.1
20260906175616 22 158 3.2 9.7 0.00 0.00 0.00 59 1017.2
20260906174503 22 157 1.6 8.0 0.00 0.00 0.00 59 1017.3
20260906173603 22 150 3.2 8.0 0.00 0.00 0.00 59 1017.5
20260906172706 22 160 3.2 11.3 0.00 0.00 0.00 58 1017.7
20260906172016 22 140 3.2 11.3 0.00 0.00 0.00 58 1017.8
20260906170905 22 155 3.2 9.7 0.00 0.00 0.00 57 1018.0
20260906170005 22 140 1.6 9.7 0.00 0.00 0.00 56 1018.1
20260906165617 22 154 1.6 9.7 0.00 0.00 0.00 55 1018.2
20260906164504 22 163 3.2 11.3 0.00 0.00 0.00 55 1018.2
20260906163606 22 158 4.8 12.9 0.00 0.00 0.00 54 1018.3
20260906162705 23 152 4.8 16.1 0.00 0.00 0.00 52 1018.5
20260906162016 23 164 4.8 16.1 0.00 0.00 0.00 53 1018.5
20260906160903 23 139 4.8 16.1 0.00 0.00 0.00 52 1018.5
20260906160003 24 128 3.2 11.3 0.00 0.00 0.00 51 1018.5
20260906155612 24 144 3.2 14.5 0.00 0.00 0.00 50 1018.6
20260906154715 24 146 3.2 14.5 0.00 0.00 0.00 49 1018.6
20260906153603 25 164 4.8 16.1 0.00 0.00 0.00 48 1018.4
20260906152915 25 151 4.8 16.1 0.00 0.00 0.00 47 1018.5
20260906151805 25 151 4.8 14.5 0.00 0.00 0.00 46 1018.5
20260906150905 25 156 4.8 14.5 0.00 0.00 0.00 46 1018.5
20260906150005 25 161 3.2 8.0 0.00 0.00 0.00 46 1018.6
20260906145613 25 164 3.2 12.9 0.00 0.00 0.00 46 1018.7
20260906144505 25 167 4.8 16.1 0.00 0.00 0.00 45 1018.7
20260906143605 25 140 3.2 11.3 0.00 0.00 0.00 45 1019.0
20260906142705 25 145 4.8 14.5 0.00 0.00 0.00 44 1018.9
20260906141803 26 157 3.2 11.3 0.00 0.00 0.00 45 1018.8
20260906141120 26 144 4.8 16.1 0.00 0.00 0.00 45 1019.0
20260906140005 26 155 4.8 17.7 0.00 0.00 0.00 44 1019.1
20260906135405 27 158 4.8 16.1 0.00 0.00 0.00 43 1019.0
20260906134505 27 129 4.8 20.9 0.00 0.00 0.00 43 1019.3
20260906133605 27 162 3.2 12.9 0.00 0.00 0.00 42 1019.4
20260906132916 27 153 3.2 12.9 0.00 0.00 0.00 43 1019.5
20260906131803 27 188 3.2 12.9 0.00 0.00 0.00 44 1019.8
20260906130906 26 177 3.2 16.1 0.00 0.00 0.00 44 1019.9
20260906130003 26 153 3.2 12.9 0.00 0.00 0.00 45 1020.0
20260906125403 25 148 3.2 14.5 0.00 0.00 0.00 47 1019.9
20260906124505 25 154 3.2 19.3 0.00 0.00 0.00 47 1020.1
20260906123606 25 154 4.8 19.3 0.00 0.00 0.00 47 1020.1
20260906122703 25 178 4.8 12.9 0.00 0.00 0.00 47 1020.2
20260906121804 25 168 4.8 14.5 0.00 0.00 0.00 46 1020.3
20260906120903 25 168 4.8 19.3 0.00 0.00 0.00 46 1020.3
20260906120005 25 162 4.8 14.5 0.00 0.00 0.00 47 1020.4
20260906115404 25 158 4.8 14.5 0.00 0.00 0.00 46 1020.5
20260906114505 25 147 4.8 14.5 0.00 0.00 0.00 47 1020.5
20260906113605 25 161 4.8 16.1 0.00 0.00 0.00 47 1020.7
20260906112703 25 164 4.8 12.9 0.00 0.00 0.00 49 1020.6
20260906111805 25 202 3.2 12.9 0.00 0.00 0.00 48 1020.6
20260906110903 25 157 4.8 17.7 0.00 0.00 0.00 51 1020.8
20260906110003 25 172 3.2 11.3 0.00 0.00 0.00 52 1020.9
20260906105403 24 163 3.2 12.9 0.00 0.00 0.00 54 1020.9
20260906104503 23 158 6.4 16.1 0.00 0.00 0.00 54 1021.0
20260906103605 24 157 4.8 14.5 0.00 0.00 0.00 54 1021.0
20260906102705 23 150 4.8 11.3 0.00 0.00 0.00 56 1021.1
20260906102015 23 170 3.2 11.3 0.00 0.00 0.00 59 1021.1
20260906100904 22 133 3.2 11.3 0.00 0.00 0.00 61 1021.1
20260906100004 22 142 3.2 12.9 0.00 0.00 0.00 62 1021.1
20260906095405 22 150 3.2 14.5 0.00 0.00 0.00 62 1021.2
20260906094503 22 159 4.8 14.5 0.00 0.00 0.00 63 1021.2
20260906093603 22 173 3.2 12.9 0.00 0.00 0.00 63 1021.3
20260906092705 21 144 3.2 12.9 0.00 0.00 0.00 63 1021.3
20260906092015 21 135 3.2 14.5 0.00 0.00 0.00 65 1021.6
20260906090903 21 136 3.2 8.0 0.00 0.00 0.00 68 1021.5
20260906090215 20 135 3.2 8.0 0.00 0.00 0.00 70 1021.7
20260906085405 20 135 4.8 11.3 0.00 0.00 0.00 71 1021.7
20260906084508 20 137 3.2 9.7 0.00 0.00 0.00 73 1021.7
20260906083817 19 137 4.8 12.9 0.00 0.00 0.00 74 1021.7
20260906082919 19 134 3.2 12.9 0.00 0.00 0.00 76 1021.7
20260906081803 18 136 3.2 12.9 0.00 0.00 0.00 78 1021.8
20260906080905 18 124 3.2 12.9 0.00 0.00 0.00 78 1022.0
20260906080008 17 156 1.6 9.7 0.00 0.00 0.00 78 1022.2
20260906075403 17 129 1.6 9.7 0.00 0.00 0.00 78 1022.1
20260906074503 17 113 3.2 6.4 0.00 0.00 0.00 77 1022.0
20260906073606 17 111 3.2 11.3 0.00 0.00 0.00 76 1022.0
20260906072914 17 104 1.6 8.0 0.00 0.00 0.00 76 1021.9
20260906071805 17 139 1.6 8.0 0.00 0.00 0.00 78 1022.0
20260906070903 17 148 1.6 6.4 0.00 0.00 0.00 79 1022.1
20260906070006 16 153 1.6 6.4 0.00 0.00 0.00 80 1022.2
20260906065613 16 160 0.0 6.4 0.00 0.00 0.00 81 1022.0
20260906064503 15 161 0.0 3.2 0.00 0.00 0.00 82 1022.3
20260906063618 15 163 0.0 3.2 0.00 0.00 0.00 82 1022.3
20260906062705 15 163 0.0 3.2 0.00 0.00 0.00 83 1022.3
20260906061806 15 163 0.0 3.2 0.00 0.00 0.00 83 1022.5
20260906060903 15 163 0.0 1.6 0.00 0.00 0.00 83 1022.4
20260906060217 15 163 0.0 1.6 0.00 0.00 0.00 82 1022.2
20260906055403 15 164 0.0 1.6 0.00 0.00 0.00 82 1022.2
20260906054505 15 164 0.0 6.4 0.00 0.00 0.00 81 1022.3
20260906053605 15 165 0.0 3.2 0.00 0.00 0.00 81 1022.4
20260906052706 15 165 1.6 6.4 0.00 0.00 0.00 81 1022.5
20260906052013 15 163 0.0 6.4 0.00 0.00 0.00 81 1022.4
20260906050906 15 0 0.0 0.0 0.00 0.00 0.00 82 1022.6
20260906050003 14 0 0.0 0.0 0.00 0.00 0.00 82 1022.6
20260906045406 14 0 0.0 0.0 0.00 0.00 0.00 82 1022.6
20260906044505 14 0 0.0 0.0 0.00 0.00 0.00 82 1022.6
20260906043605 14 0 0.0 0.0 0.00 0.00 0.00 83 1022.6
20260906042703 14 0 0.0 0.0 0.00 0.00 0.00 82 1022.6
20260906041803 14 0 0.0 0.0 0.00 0.00 0.00 82 1022.6
20260906040905 14 0 0.0 0.0 0.00 0.00 0.00 82 1022.7
20260906040005 14 0 0.0 0.0 0.00 0.00 0.00 81 1022.7
20260906035615 14 0 0.0 0.0 0.00 0.00 0.00 81 1022.8
20260906034505 14 0 0.0 0.0 0.00 0.00 0.00 81 1022.8
20260906033603 14 0 0.0 0.0 0.00 0.00 0.00 81 1022.8
20260906032703 14 0 0.0 0.0 0.00 0.00 0.00 81 1022.8
20260906031805 14 0 0.0 0.0 0.00 0.00 0.00 81 1022.7
20260906030905 14 0 0.0 0.0 0.00 0.00 0.00 80 1022.8
20260906030003 14 0 0.0 0.0 0.00 0.00 0.00 80 1023.0
20260906025405 14 0 0.0 0.0 0.00 0.00 0.00 80 1023.1
20260906024506 14 0 0.0 0.0 0.00 0.00 0.00 80 1023.2
20260906023603 14 0 0.0 0.0 0.00 0.00 0.00 80 1023.3
20260906022706 14 0 0.0 0.0 0.00 0.00 0.00 80 1023.6
20260906021803 14 0 0.0 0.0 0.00 0.00 0.00 81 1023.6
20260906020905 14 0 0.0 0.0 0.00 0.00 0.00 80 1023.9
20260906020005 14 0 0.0 0.0 0.00 0.00 0.00 80 1023.7
20260906015616 14 0 0.0 0.0 0.00 0.00 0.00 80 1023.9
20260906014506 14 0 0.0 0.0 0.00 0.00 0.00 80 1023.9
20260906013816 14 0 0.0 0.0 0.00 0.00 0.00 79 1024.0
20260906012705 15 0 0.0 0.0 0.00 0.00 0.00 79 1024.0
20260906011805 15 0 0.0 0.0 0.00 0.00 0.00 79 1024.2
20260906010904 15 0 0.0 0.0 0.00 0.00 0.00 79 1024.2
20260906010005 15 0 0.0 0.0 0.00 0.00 0.00 79 1024.1
20260906005405 15 0 0.0 0.0 0.00 0.00 0.00 79 1024.1
20260906004503 15 0 0.0 0.0 0.00 0.00 0.00 79 1024.2
20260906003606 15 0 0.0 0.0 0.00 0.00 0.00 79 1024.2
20260906002703 15 0 0.0 0.0 0.00 0.00 0.00 79 1024.3
20260906001805 15 0 0.0 0.0 0.00 0.00 0.00 78 1024.4
20260906000906 15 0 0.0 0.0 0.00 0.00 0.00 78 1024.5
20260906000003 15 165 0.0 3.2 0.00 0.00 0.00 78 1024.6
20260905235405 15 165 0.0 3.2 0.00 0.00 0.00 78 1024.5
20260905234503 15 165 0.0 1.6 0.00 0.00 0.00 78 1024.4
20260905232706 15 0 0.0 0.0 0.00 0.00 0.00 78 1024.5
20260905231803 15 165 0.0 1.6 0.00 0.00 0.00 77 1024.4
20260905230905 15 165 0.0 1.6 0.00 0.00 0.00 77 1024.4
20260905230005 15 165 0.0 1.6 0.00 0.00 0.00 77 1024.5
20260905225613 15 165 0.0 1.6 0.00 0.00 0.00 77 1024.5
20260905224504 15 0 0.0 0.0 0.00 0.00 0.00 76 1024.5
20260905223605 15 0 0.0 0.0 0.00 0.00 0.00 76 1024.6
20260905222915 16 165 0.0 1.6 0.00 0.00 0.00 76 1024.5
20260905222018 16 165 0.0 1.6 0.00 0.00 0.00 75 1024.5
20260905221115 16 0 0.0 0.0 0.00 0.00 0.00 75 1024.4
20260905220004 16 165 0.0 3.2 0.00 0.00 0.00 75 1024.4
20260905215403 16 165 0.0 3.2 0.00 0.00 0.00 75 1024.5
20260905214716 16 164 0.0 3.2 0.00 0.00 0.00 75 1024.7
20260905213605 16 0 0.0 0.0 0.00 0.00 0.00 74 1024.3
20260905212705 16 162 0.0 3.2 0.00 0.00 0.00 74 1024.2
20260905211805 16 162 0.0 3.2 0.00 0.00 0.00 74 1024.2
20260905210905 16 162 0.0 3.2 0.00 0.00 0.00 73 1024.2
20260905210218 16 162 0.0 1.6 0.00 0.00 0.00 73 1024.2